#�ϑ�����,���ϕ���,���ϕ���,�ő啗��,�ő啗����������,�ő�u�ԕ���,�ő�u�ԕ�����������
#(�N����),(m/s)   ,(16����),(m/s)   ,(16����)        ,(m/s)       ,(16����)            
2017/9/11 0:01,0.6,1,0.6,1,1.6,2
2017/9/11 0:02,0.6,1,0.6,16,1.4,1
2017/9/11 0:03,0.7,1,0.7,1,1.5,2
2017/9/11 0:04,0.7,1,0.7,1,1.1,16
2017/9/11 0:05,0.8,1,0.8,1,2.5,1
2017/9/11 0:06,0.9,1,0.9,1,2.6,1
2017/9/11 0:07,1.1,1,1.1,1,3,16
2017/9/11 0:08,1.1,1,1.1,1,1.8,1
2017/9/11 0:09,1.1,1,1.1,1,1.6,16
2017/9/11 0:10,1,1,1.1,1,1.6,2
2017/9/11 0:11,1,1,1,1,2.1,15
2017/9/11 0:12,1.1,2,1.1,1,2.9,2
2017/9/11 0:13,1.1,2,1.1,1,2.4,4
2017/9/11 0:14,1.1,2,1.1,1,1.5,16
2017/9/11 0:15,1,2,1.1,1,0.5,2
2017/9/11 0:16,0.9,2,1,1,1.1,16
2017/9/11 0:17,0.8,2,0.9,1,1.3,16
2017/9/11 0:18,0.8,2,0.8,1,1.9,2
2017/9/11 0:19,0.9,2,0.9,1,1.8,1
2017/9/11 0:20,0.9,2,0.9,2,2.2,3
2017/9/11 0:21,1,1,1,2,1.6,2
2017/9/11 0:22,0.9,1,1,2,1.6,2
2017/9/11 0:23,0.9,1,0.9,2,1.4,2
2017/9/11 0:24,0.9,1,0.9,2,1.3,3
2017/9/11 0:25,1,1,1,2,1.3,16
2017/9/11 0:26,1,1,1,2,1.4,16
2017/9/11 0:27,1.1,1,1.1,1,1.8,16
2017/9/11 0:28,1.1,1,1.1,1,1.6,1
2017/9/11 0:29,1.1,1,1.1,1,1.6,16
2017/9/11 0:30,1,1,1.1,1,1.6,2
2017/9/11 0:31,1,1,1,1,1.5,1
2017/9/11 0:32,1,1,1,1,2,2
2017/9/11 0:33,1,1,1,1,1.3,16
2017/9/11 0:34,1,1,1,1,1.5,1
2017/9/11 0:35,1.1,1,1.1,1,1.9,1
2017/9/11 0:36,1.2,1,1.2,1,3.2,1
2017/9/11 0:37,1.2,1,1.2,1,2.9,16
2017/9/11 0:38,1.3,1,1.3,1,2.2,1
2017/9/11 0:39,1.3,1,1.3,1,1.8,1
2017/9/11 0:40,1.3,1,1.3,1,1.9,2
2017/9/11 0:41,1.4,1,1.4,1,2.2,1
2017/9/11 0:42,1.4,1,1.4,1,2,1
2017/9/11 0:43,1.4,1,1.4,1,1.8,1
2017/9/11 0:44,1.5,1,1.5,1,3,3
2017/9/11 0:45,1.6,2,1.6,1,2.2,2
2017/9/11 0:46,1.5,2,1.6,1,2,3
2017/9/11 0:47,1.4,2,1.5,1,1.8,2
2017/9/11 0:48,1.4,2,1.4,1,2.4,1
2017/9/11 0:49,1.5,2,1.5,1,3.7,3
2017/9/11 0:50,1.6,2,1.6,1,2.7,2
2017/9/11 0:51,1.6,2,1.6,1,2.2,3
2017/9/11 0:52,1.6,2,1.6,1,2.7,3
2017/9/11 0:53,1.7,2,1.7,2,3.6,2
2017/9/11 0:54,1.7,2,1.7,2,3.5,3
2017/9/11 0:55,1.6,2,1.7,2,1.8,2
2017/9/11 0:56,1.6,2,1.6,2,2,3
2017/9/11 0:57,1.6,3,1.6,2,1.8,3
2017/9/11 0:58,1.6,3,1.6,2,2.6,2
2017/9/11 0:59,1.4,2,1.6,2,1.1,1
2017/9/11 1:00,1.4,2,1.4,2,1.9,3
2017/9/11 1:01,1.3,2,1.4,2,1.6,2
2017/9/11 1:02,1.3,2,1.3,2,1.8,3
2017/9/11 1:03,1.1,2,1.2,2,1.6,1
2017/9/11 1:04,1,2,1.1,2,1.3,16
2017/9/11 1:05,1,2,1,2,1.3,1
2017/9/11 1:06,0.9,2,1,2,1.1,16
2017/9/11 1:07,0.9,2,0.9,3,1.8,4
2017/9/11 1:08,0.8,2,0.9,3,0.5,16
2017/9/11 1:09,0.8,2,0.8,2,0.9,2
2017/9/11 1:10,0.7,2,0.8,2,0.5,3
2017/9/11 1:11,0.6,2,0.7,2,1.1,3
2017/9/11 1:12,0.6,2,0.6,2,1,5
2017/9/11 1:13,0.7,2,0.7,2,2.1,4
2017/9/11 1:14,0.7,3,0.7,2,1.3,4
2017/9/11 1:15,0.7,3,0.7,2,1.1,3
2017/9/11 1:16,0.7,3,0.7,2,0.9,4
2017/9/11 1:17,0.6,3,0.7,2,1,4
2017/9/11 1:18,0.6,4,0.6,2,0.6,6
2017/9/11 1:19,0.6,4,0.6,2,0.8,7
2017/9/11 1:20,0.6,4,0.6,2,0.3,9
2017/9/11 1:21,0.5,5,0.6,2,0.8,9
2017/9/11 1:22,0.5,5,0.5,2,0.8,9
2017/9/11 1:23,0.4,6,0.5,2,0.8,10
2017/9/11 1:24,0.3,7,0.4,3,0.6,10
2017/9/11 1:25,0.3,8,0.3,3,0.5,9
2017/9/11 1:26,0.3,8,0.3,3,1,3
2017/9/11 1:27,0.3,8,0.3,3,0.6,16
2017/9/11 1:28,0.3,8,0.3,4,0.6,4
2017/9/11 1:29,0.3,8,0.3,4,1,16
2017/9/11 1:30,0.4,7,0.4,4,0.9,2
2017/9/11 1:31,0.3,6,0.4,5,0.4,10
2017/9/11 1:32,0.3,5,0.3,6,0.3,4
2017/9/11 1:33,0.3,4,0.3,6,0.6,6
2017/9/11 1:34,0.3,4,0.3,7,0.8,4
2017/9/11 1:35,0.3,4,0.3,7,0.4,4
2017/9/11 1:36,0.2,4,0.3,7,0.3,16
2017/9/11 1:37,0.2,4,0.2,7,0.3,16
2017/9/11 1:38,0.2,3,0.2,7,0.4,2
2017/9/11 1:39,0.1,3,0.2,7,0.3,3
2017/9/11 1:40,0.1,3,0.1,7,0.1,16
2017/9/11 1:41,0.2,3,0.2,6,0.9,15
2017/9/11 1:42,0.2,2,0.2,5,0.9,14
2017/9/11 1:43,0.2,2,0.2,4,0.3,2
2017/9/11 1:44,0.2,2,0.2,4,0.5,4
2017/9/11 1:45,0.2,2,0.2,4,0.5,3
2017/9/11 1:46,0.2,1,0.2,3,0.4,16
2017/9/11 1:47,0.2,1,0.2,4,0,15
2017/9/11 1:48,0.2,2,0.2,3,0.1,2
2017/9/11 1:49,0.2,1,0.2,3,0.1,3
2017/9/11 1:50,0.2,1,0.2,3,0.6,2
2017/9/11 1:51,0.2,1,0.2,3,0.6,2
2017/9/11 1:52,0.2,2,0.2,2,0.8,3
2017/9/11 1:53,0.2,2,0.2,2,0.8,4
2017/9/11 1:54,0.2,2,0.2,2,0.8,4
2017/9/11 1:55,0.3,2,0.3,2,1,1
2017/9/11 1:56,0.3,2,0.3,2,1,2
2017/9/11 1:57,0.4,2,0.4,2,1.3,2
2017/9/11 1:58,0.5,2,0.5,2,1.1,1
2017/9/11 1:59,0.6,2,0.6,2,1.3,16
2017/9/11 2:00,0.7,2,0.7,2,1.6,1
2017/9/11 2:01,0.8,2,0.8,2,2.1,2
2017/9/11 2:02,0.9,2,0.9,2,2.7,3
2017/9/11 2:03,1.1,2,1.1,2,2.5,3
2017/9/11 2:04,1.1,2,1.1,2,1.8,3
2017/9/11 2:05,1.1,2,1.1,2,1.5,2
2017/9/11 2:06,1.2,2,1.2,2,1.6,1
2017/9/11 2:07,1.2,2,1.2,2,2.2,4
2017/9/11 2:08,1.2,2,1.2,2,2.4,3
2017/9/11 2:09,1.2,2,1.2,2,1.8,3
2017/9/11 2:10,1.2,2,1.2,2,1.6,3
2017/9/11 2:11,1.1,2,1.2,2,1.3,1
2017/9/11 2:12,1.1,2,1.1,2,2,1
2017/9/11 2:13,1,2,1.1,2,2.2,1
2017/9/11 2:14,1.1,2,1.1,2,2.1,2
2017/9/11 2:15,1.2,2,1.2,2,2.1,2
2017/9/11 2:16,1.2,1,1.2,2,2,1
2017/9/11 2:17,1.2,1,1.2,2,2.4,3
2017/9/11 2:18,1.1,1,1.2,2,1.8,2
2017/9/11 2:19,1.1,1,1.1,2,1.4,1
2017/9/11 2:20,1.2,1,1.2,2,2.1,1
2017/9/11 2:21,1.2,1,1.2,2,2.4,1
2017/9/11 2:22,1.2,1,1.2,2,2.7,3
2017/9/11 2:23,1.2,2,1.2,2,2.5,3
2017/9/11 2:24,1.1,1,1.2,2,1.6,2
2017/9/11 2:25,1,2,1.1,2,1.1,3
2017/9/11 2:26,1,2,1,1,1.5,1
2017/9/11 2:27,1,2,1,1,1.6,2
2017/9/11 2:28,1,2,1,1,1.3,2
2017/9/11 2:29,1,2,1,1,1.6,2
2017/9/11 2:30,0.9,2,1,1,1.4,2
2017/9/11 2:31,0.8,2,0.9,1,1.1,2
2017/9/11 2:32,0.7,2,0.8,1,1,2
2017/9/11 2:33,0.7,2,0.7,2,1.9,2
2017/9/11 2:34,0.8,2,0.8,2,1.9,2
2017/9/11 2:35,0.8,2,0.8,2,1.9,2
2017/9/11 2:36,0.8,2,0.8,2,1.1,1
2017/9/11 2:37,0.8,2,0.8,2,2.1,3
2017/9/11 2:38,0.8,2,0.8,2,1.8,4
2017/9/11 2:39,0.8,2,0.8,2,1,1
2017/9/11 2:40,0.8,2,0.8,2,1,2
2017/9/11 2:41,0.8,2,0.8,2,1.6,1
2017/9/11 2:42,1,2,1,2,2.6,2
2017/9/11 2:43,1.1,2,1.1,2,2.7,2
2017/9/11 2:44,1,2,1,2,1.6,1
2017/9/11 2:45,1,1,1,2,1.1,16
2017/9/11 2:46,0.9,1,0.9,2,0.5,16
2017/9/11 2:47,0.9,2,0.9,2,1.9,2
2017/9/11 2:48,0.9,1,0.9,2,1.3,2
2017/9/11 2:49,0.9,1,0.9,2,1.8,16
2017/9/11 2:50,0.9,1,0.9,2,1.8,1
2017/9/11 2:51,1,1,1,2,1.9,1
2017/9/11 2:52,0.9,1,1,2,1.8,1
2017/9/11 2:53,0.9,1,0.9,2,1.5,2
2017/9/11 2:54,0.9,2,0.9,2,2,3
2017/9/11 2:55,1,2,1,1,2.2,4
2017/9/11 2:56,1.1,2,1.1,2,1.9,3
2017/9/11 2:57,1.1,2,1.1,2,2,3
2017/9/11 2:58,1.1,2,1.1,2,2,1
2017/9/11 2:59,1.2,2,1.2,2,2.9,2
2017/9/11 3:00,1.3,2,1.3,2,2.7,3
2017/9/11 3:01,1.4,2,1.4,2,3.5,2
2017/9/11 3:02,1.5,2,1.5,2,2.9,2
2017/9/11 3:03,1.5,2,1.5,2,2,2
2017/9/11 3:04,1.5,2,1.5,2,2,2
2017/9/11 3:05,1.4,2,1.5,2,1.4,4
2017/9/11 3:06,1.5,2,1.5,2,3,2
2017/9/11 3:07,1.6,2,1.6,2,3.7,3
2017/9/11 3:08,1.7,2,1.7,2,3,4
2017/9/11 3:09,1.7,2,1.7,2,2.7,3
2017/9/11 3:10,1.7,3,1.7,2,2.9,3
2017/9/11 3:11,1.6,3,1.7,2,3,4
2017/9/11 3:12,1.7,3,1.7,2,3,4
2017/9/11 3:13,1.8,3,1.8,3,3.2,3
2017/9/11 3:14,1.9,3,1.9,3,3.3,4
2017/9/11 3:15,1.9,3,1.9,3,2,3
2017/9/11 3:16,1.9,3,1.9,3,2.2,3
2017/9/11 3:17,1.8,3,1.9,3,2.9,3
2017/9/11 3:18,1.9,3,1.9,3,3.8,3
2017/9/11 3:19,2,3,2,3,4.2,3
2017/9/11 3:20,2.1,3,2.1,3,4.4,4
2017/9/11 3:21,2.2,3,2.2,3,3.8,3
2017/9/11 3:22,2.2,3,2.2,3,2.5,3
2017/9/11 3:23,2.1,3,2.2,3,3,3
2017/9/11 3:24,2.1,3,2.1,3,3.5,3
2017/9/11 3:25,2.2,3,2.2,3,2.2,2
2017/9/11 3:26,2.1,3,2.2,3,2.5,3
2017/9/11 3:27,2.1,3,2.2,3,2.2,3
2017/9/11 3:28,2,3,2.1,3,2.7,3
2017/9/11 3:29,2,3,2,3,3.2,3
2017/9/11 3:30,1.8,2,1.9,3,1.5,2
2017/9/11 3:31,1.6,2,1.7,3,1.9,3
2017/9/11 3:32,1.5,2,1.6,3,2,3
2017/9/11 3:33,1.5,2,1.5,3,1.8,3
2017/9/11 3:34,1.4,2,1.5,3,2.7,1
2017/9/11 3:35,1.4,2,1.5,3,1.9,2
2017/9/11 3:36,1.4,2,1.4,3,1.8,3
2017/9/11 3:37,1.4,2,1.4,3,2.1,3
2017/9/11 3:38,1.3,2,1.4,3,2.2,3
2017/9/11 3:39,1.2,2,1.3,3,1.4,2
2017/9/11 3:40,1.1,2,1.2,2,1,15
2017/9/11 3:41,1.1,2,1.2,2,2.9,4
2017/9/11 3:42,1.2,2,1.2,2,2.5,1
2017/9/11 3:43,1.2,2,1.2,2,3.2,1
2017/9/11 3:44,1.2,2,1.2,2,2.5,2
2017/9/11 3:45,1.2,2,1.2,2,2.6,3
2017/9/11 3:46,1.3,2,1.3,2,1.8,3
2017/9/11 3:47,1.3,2,1.3,2,2.2,4
2017/9/11 3:48,1.2,2,1.3,2,2,4
2017/9/11 3:49,1.3,2,1.3,2,2.4,3
2017/9/11 3:50,1.4,3,1.4,3,2.1,3
2017/9/11 3:51,1.5,3,1.5,3,2.1,3
2017/9/11 3:52,1.4,3,1.5,3,1.3,3
2017/9/11 3:53,1.3,3,1.4,3,0.6,3
2017/9/11 3:54,1.1,3,1.2,3,0.9,3
2017/9/11 3:55,1,3,1.1,3,0.8,4
2017/9/11 3:56,1,3,1,3,1.8,3
2017/9/11 3:57,1.1,3,1.1,3,2.6,3
2017/9/11 3:58,1.1,3,1.1,3,2.6,4
2017/9/11 3:59,1.1,3,1.1,3,2,4
2017/9/11 4:00,1.1,3,1.1,3,2.1,3
2017/9/11 4:01,1.1,3,1.1,3,2,5
2017/9/11 4:02,1.1,3,1.1,3,1.6,4
2017/9/11 4:03,1.1,3,1.1,3,1.4,3
2017/9/11 4:04,1.2,3,1.2,3,1.8,3
2017/9/11 4:05,1.3,3,1.3,3,2.4,3
2017/9/11 4:06,1.5,3,1.5,3,2.9,4
2017/9/11 4:07,1.4,3,1.5,3,2.1,3
2017/9/11 4:08,1.3,3,1.4,3,1.8,2
2017/9/11 4:09,1.3,3,1.3,3,2.4,3
2017/9/11 4:10,1.4,3,1.4,3,2.2,4
2017/9/11 4:11,1.4,3,1.4,3,2.5,3
2017/9/11 4:12,1.4,3,1.4,3,2,3
2017/9/11 4:13,1.5,3,1.5,3,2,2
2017/9/11 4:14,1.6,3,1.6,3,3,2
2017/9/11 4:15,1.6,3,1.6,3,2.9,3
2017/9/11 4:16,1.6,3,1.6,3,2.6,3
2017/9/11 4:17,1.5,3,1.5,3,1.9,3
2017/9/11 4:18,1.6,3,1.6,3,2.4,3
2017/9/11 4:19,1.6,3,1.6,3,2.1,4
2017/9/11 4:20,1.6,3,1.6,3,2,3
2017/9/11 4:21,1.5,3,1.6,3,1.5,4
2017/9/11 4:22,1.5,3,1.5,3,2.5,2
2017/9/11 4:23,1.4,3,1.5,3,2.4,3
2017/9/11 4:24,1.5,3,1.5,3,3,3
2017/9/11 4:25,1.5,3,1.6,3,3.6,2
2017/9/11 4:26,1.5,3,1.5,3,2.1,3
2017/9/11 4:27,1.6,3,1.6,3,2.2,3
2017/9/11 4:28,1.5,3,1.6,3,2.4,3
2017/9/11 4:29,1.6,3,1.6,3,2.4,4
2017/9/11 4:30,1.6,3,1.6,3,2,3
2017/9/11 4:31,1.6,3,1.6,3,2.4,3
2017/9/11 4:32,1.7,3,1.7,3,2.5,3
2017/9/11 4:33,1.7,3,1.7,3,2.7,2
2017/9/11 4:34,1.6,3,1.7,3,2.4,3
2017/9/11 4:35,1.5,3,1.6,3,2,3
2017/9/11 4:36,1.4,3,1.5,3,1.3,3
2017/9/11 4:37,1.3,3,1.4,3,1.4,1
2017/9/11 4:38,1.3,3,1.3,3,1.5,2
2017/9/11 4:39,1.2,3,1.3,3,1.8,4
2017/9/11 4:40,1.2,3,1.2,3,2.5,2
2017/9/11 4:41,1.2,3,1.3,3,2.4,3
2017/9/11 4:42,1.3,3,1.3,3,2.5,3
2017/9/11 4:43,1.2,3,1.3,3,2.2,3
2017/9/11 4:44,1.3,2,1.3,3,2.1,3
2017/9/11 4:45,1.4,2,1.4,3,3,2
2017/9/11 4:46,1.5,2,1.5,2,2.7,3
2017/9/11 4:47,1.5,3,1.5,2,2.1,3
2017/9/11 4:48,1.5,2,1.5,2,2,3
2017/9/11 4:49,1.5,2,1.5,2,1.5,3
2017/9/11 4:50,1.4,2,1.5,2,2.4,3
2017/9/11 4:51,1.5,2,1.5,2,2.4,3
2017/9/11 4:52,1.4,2,1.5,2,1.8,3
2017/9/11 4:53,1.4,2,1.4,2,1.9,2
2017/9/11 4:54,1.4,2,1.4,2,1.9,1
2017/9/11 4:55,1.3,2,1.3,2,2.2,1
2017/9/11 4:56,1.2,2,1.2,3,2.4,1
2017/9/11 4:57,1.3,2,1.3,3,2.7,3
2017/9/11 4:58,1.3,2,1.3,2,1.6,2
2017/9/11 4:59,1.3,2,1.3,2,1.9,2
2017/9/11 5:00,1.3,2,1.3,2,2,3
2017/9/11 5:01,1.3,2,1.3,2,2.6,3
2017/9/11 5:02,1.3,2,1.3,2,2.9,2
2017/9/11 5:03,1.4,2,1.4,2,3.2,2
2017/9/11 5:04,1.5,2,1.5,2,2.7,3
2017/9/11 5:05,1.6,2,1.6,2,3.2,3
2017/9/11 5:06,1.7,2,1.7,2,3.3,2
2017/9/11 5:07,1.7,2,1.7,2,2.9,2
2017/9/11 5:08,1.8,2,1.8,2,2.9,3
2017/9/11 5:09,1.8,3,1.8,2,3.2,3
2017/9/11 5:10,2,3,2,3,3.5,4
2017/9/11 5:11,2.1,3,2.1,3,3.1,4
2017/9/11 5:12,2,3,2.1,3,2.6,3
2017/9/11 5:13,2.1,3,2.1,3,2.9,3
2017/9/11 5:14,2.1,3,2.1,3,2.4,2
2017/9/11 5:15,2,3,2.1,3,2.6,3
2017/9/11 5:16,1.9,3,2,3,1.5,3
2017/9/11 5:17,1.8,3,1.9,3,3,4
2017/9/11 5:18,1.8,3,1.8,3,3.1,3
2017/9/11 5:19,1.9,3,1.9,3,3.1,3
2017/9/11 5:20,1.8,3,1.9,3,3,2
2017/9/11 5:21,1.8,3,1.9,3,2.7,3
2017/9/11 5:22,1.8,3,1.8,3,2.4,2
2017/9/11 5:23,1.8,3,1.8,3,3.6,3
2017/9/11 5:24,1.8,3,1.9,3,3.8,3
2017/9/11 5:25,1.9,3,1.9,3,3.8,2
2017/9/11 5:26,1.9,3,1.9,3,2.7,3
2017/9/11 5:27,2,3,2,3,2.9,2
2017/9/11 5:28,2,3,2,3,2.9,4
2017/9/11 5:29,2,3,2,3,3.6,3
2017/9/11 5:30,2,3,2,3,3.6,4
2017/9/11 5:31,2,3,2,3,3.3,3
2017/9/11 5:32,2,3,2.1,3,3.1,3
2017/9/11 5:33,2.1,3,2.1,3,3.6,4
2017/9/11 5:34,2.1,3,2.1,3,3.3,3
2017/9/11 5:35,2.1,3,2.1,3,3.5,4
2017/9/11 5:36,2.1,3,2.2,3,3.3,4
2017/9/11 5:37,2.2,3,2.2,3,3.2,4
2017/9/11 5:38,2.2,3,2.2,3,4.2,4
2017/9/11 5:39,2.2,3,2.3,3,3.2,4
2017/9/11 5:40,2.2,3,2.3,3,2.6,3
2017/9/11 5:41,2,3,2.2,3,1.8,2
2017/9/11 5:42,2.1,3,2.1,3,2.7,4
2017/9/11 5:43,2.1,3,2.1,3,3.1,3
2017/9/11 5:44,2,3,2.1,3,2.4,3
2017/9/11 5:45,1.9,3,2,3,2.6,3
2017/9/11 5:46,1.9,3,1.9,3,3,4
2017/9/11 5:47,1.9,3,1.9,3,2.7,3
2017/9/11 5:48,1.8,3,1.9,3,2.2,3
2017/9/11 5:49,1.7,3,1.8,3,2.7,3
2017/9/11 5:50,1.7,3,1.7,3,2.5,4
2017/9/11 5:51,1.8,3,1.8,3,2.6,3
2017/9/11 5:52,1.8,3,1.8,3,2.9,4
2017/9/11 5:53,1.7,3,1.8,3,2.6,3
2017/9/11 5:54,1.8,3,1.8,3,3.2,2
2017/9/11 5:55,1.8,3,1.8,3,3,2
2017/9/11 5:56,1.8,3,1.8,3,2.5,3
2017/9/11 5:57,1.8,3,1.8,3,3.2,3
2017/9/11 5:58,1.9,3,1.9,3,3.3,3
2017/9/11 5:59,1.9,2,1.9,3,2.7,3
2017/9/11 6:00,1.9,2,1.9,3,2.7,2
2017/9/11 6:01,1.9,2,1.9,3,3.7,3
2017/9/11 6:02,2,3,2,2,3.9,3
2017/9/11 6:03,2.1,3,2.1,3,3.2,3
2017/9/11 6:04,2.2,3,2.2,3,4.4,3
2017/9/11 6:05,2.3,3,2.3,3,4.7,3
2017/9/11 6:06,2.4,3,2.4,3,4.9,2
2017/9/11 6:07,2.6,3,2.6,3,5.4,3
2017/9/11 6:08,2.7,3,2.7,3,4.8,4
2017/9/11 6:09,2.8,3,2.8,3,4.3,3
2017/9/11 6:10,2.8,3,2.8,3,3.3,4
2017/9/11 6:11,2.8,3,2.8,3,3.8,3
2017/9/11 6:12,2.8,3,2.8,3,4.4,3
2017/9/11 6:13,2.8,3,2.8,3,3.3,3
2017/9/11 6:14,2.7,3,2.9,3,3.7,3
2017/9/11 6:15,2.7,3,2.7,3,3,3
2017/9/11 6:16,2.6,3,2.7,3,3.9,3
2017/9/11 6:17,2.5,3,2.6,3,3.7,4
2017/9/11 6:18,2.5,3,2.6,3,3.5,2
2017/9/11 6:19,2.4,3,2.5,3,3.3,2
2017/9/11 6:20,2.4,3,2.4,3,3,3
2017/9/11 6:21,2.4,3,2.4,3,3.9,3
2017/9/11 6:22,2.3,3,2.4,3,3.9,3
2017/9/11 6:23,2.3,3,2.3,3,2.9,3
2017/9/11 6:24,2.2,3,2.3,3,2.5,3
2017/9/11 6:25,2.3,3,2.3,3,3.7,4
2017/9/11 6:26,2.3,3,2.3,3,3.7,3
2017/9/11 6:27,2.2,3,2.3,3,3.5,3
2017/9/11 6:28,2.2,3,2.2,3,3.1,3
2017/9/11 6:29,2.2,3,2.2,3,2.7,3
2017/9/11 6:30,2.2,3,2.2,3,2.5,5
2017/9/11 6:31,2.1,3,2.2,3,3.5,3
2017/9/11 6:32,2.3,3,2.3,3,4.9,3
2017/9/11 6:33,2.3,3,2.3,3,3.2,3
2017/9/11 6:34,2.4,3,2.4,3,3,3
2017/9/11 6:35,2.2,3,2.4,3,2.9,4
2017/9/11 6:36,2.2,3,2.2,3,3.3,3
2017/9/11 6:37,2.2,3,2.2,3,3.2,4
2017/9/11 6:38,2.3,3,2.3,3,3.6,3
2017/9/11 6:39,2.3,3,2.3,3,3.6,3
2017/9/11 6:40,2.4,3,2.4,3,3.2,3
2017/9/11 6:41,2.5,3,2.5,3,3.1,3
2017/9/11 6:42,2.3,3,2.5,3,3.3,3
2017/9/11 6:43,2.3,3,2.3,3,3.1,2
2017/9/11 6:44,2.2,3,2.3,3,2.7,3
2017/9/11 6:45,2.3,3,2.3,3,3.3,3
2017/9/11 6:46,2.3,3,2.3,3,3.2,2
2017/9/11 6:47,2.2,3,2.3,3,3.7,3
2017/9/11 6:48,2.2,3,2.3,3,3.9,2
2017/9/11 6:49,2.2,3,2.2,3,3.3,3
2017/9/11 6:50,2,3,2.2,3,2,4
2017/9/11 6:51,2,3,2,3,3,4
2017/9/11 6:52,2,3,2,3,3.5,4
2017/9/11 6:53,2,3,2,3,3.1,3
2017/9/11 6:54,2,3,2,3,2.6,5
2017/9/11 6:55,1.8,3,2,3,1.8,4
2017/9/11 6:56,1.8,3,1.8,3,2.1,2
2017/9/11 6:57,1.7,3,1.8,3,2,3
2017/9/11 6:58,1.5,3,1.6,3,2,4
2017/9/11 6:59,1.4,3,1.5,3,3.5,4
2017/9/11 7:00,1.5,3,1.5,3,3.6,2
2017/9/11 7:01,1.6,3,1.6,3,3.8,3
2017/9/11 7:02,1.5,3,1.6,3,2.5,4
2017/9/11 7:03,1.3,3,1.5,3,0.8,2
2017/9/11 7:04,1.3,3,1.3,3,1.5,1
2017/9/11 7:05,1.3,3,1.3,3,1.8,3
2017/9/11 7:06,1.2,3,1.3,3,2.1,1
2017/9/11 7:07,1.2,3,1.2,3,1.9,3
2017/9/11 7:08,1.3,3,1.3,3,1.9,3
2017/9/11 7:09,1.3,3,1.3,3,2,3
2017/9/11 7:10,1.3,3,1.3,3,2.9,4
2017/9/11 7:11,1.3,3,1.4,3,3.5,3
2017/9/11 7:12,1.4,3,1.4,3,2.6,3
2017/9/11 7:13,1.5,3,1.5,3,2.4,3
2017/9/11 7:14,1.6,3,1.6,3,1.9,3
2017/9/11 7:15,1.6,3,1.6,3,2,2
2017/9/11 7:16,1.6,3,1.6,3,2.4,5
2017/9/11 7:17,1.6,3,1.6,3,1.6,4
2017/9/11 7:18,1.5,3,1.6,3,1.8,2
2017/9/11 7:19,1.5,3,1.5,3,2.6,3
2017/9/11 7:20,1.5,3,1.5,3,3.2,3
2017/9/11 7:21,1.4,3,1.5,3,2.5,4
2017/9/11 7:22,1.4,3,1.4,3,2.1,4
2017/9/11 7:23,1.4,3,1.4,3,3.2,3
2017/9/11 7:24,1.6,3,1.6,3,3.5,3
2017/9/11 7:25,1.7,3,1.7,3,3.2,4
2017/9/11 7:26,1.7,3,1.7,3,2.9,4
2017/9/11 7:27,1.7,3,1.7,3,1.5,3
2017/9/11 7:28,1.8,3,1.8,3,2.2,1
2017/9/11 7:29,1.8,3,1.8,3,2.1,4
2017/9/11 7:30,1.7,3,1.8,3,2.1,2
2017/9/11 7:31,1.7,3,1.7,3,2.2,5
2017/9/11 7:32,1.7,3,1.8,3,2.7,5
2017/9/11 7:33,1.7,3,1.8,3,2.5,5
2017/9/11 7:34,1.5,3,1.7,3,1.6,3
2017/9/11 7:35,1.4,3,1.5,3,1.9,3
2017/9/11 7:36,1.4,3,1.4,3,1.9,6
2017/9/11 7:37,1.4,4,1.4,3,2.4,6
2017/9/11 7:38,1.5,4,1.5,3,3.3,5
2017/9/11 7:39,1.6,4,1.6,3,3.8,5
2017/9/11 7:40,1.7,5,1.7,3,2.7,6
2017/9/11 7:41,1.7,5,1.7,3,1.6,6
2017/9/11 7:42,1.6,5,1.7,3,2.5,3
2017/9/11 7:43,1.6,5,1.6,3,2.1,4
2017/9/11 7:44,1.7,5,1.7,4,2.2,3
2017/9/11 7:45,1.7,5,1.7,4,2.9,5
2017/9/11 7:46,1.8,5,1.8,5,3.1,3
2017/9/11 7:47,1.9,4,1.9,5,2.7,3
2017/9/11 7:48,1.8,4,1.9,5,2.6,4
2017/9/11 7:49,1.8,4,1.8,5,2.7,5
2017/9/11 7:50,1.7,4,1.8,5,1.8,4
2017/9/11 7:51,1.7,4,1.7,5,2.7,5
2017/9/11 7:52,1.7,4,1.7,5,2.7,4
2017/9/11 7:53,1.8,4,1.8,5,3,4
2017/9/11 7:54,1.8,4,1.8,5,3.2,5
2017/9/11 7:55,1.7,4,1.8,5,2.6,3
2017/9/11 7:56,1.8,4,1.8,5,3.7,3
2017/9/11 7:57,1.8,4,1.8,4,2.7,3
2017/9/11 7:58,1.9,4,1.9,4,3.7,3
2017/9/11 7:59,2,4,2,4,3.7,4
2017/9/11 8:00,2.1,4,2.1,4,3.1,5
2017/9/11 8:01,2.1,4,2.1,4,2.2,4
2017/9/11 8:02,2.1,3,2.1,4,3,3
2017/9/11 8:03,2.1,3,2.1,4,2.5,4
2017/9/11 8:04,2.1,3,2.1,4,2.7,3
2017/9/11 8:05,2.3,3,2.3,3,4.1,4
2017/9/11 8:06,2.2,3,2.3,3,3.9,5
2017/9/11 8:07,2.1,4,2.2,3,2.1,3
2017/9/11 8:08,2,4,2.1,3,2.1,3
2017/9/11 8:09,1.9,3,2,3,2,3
2017/9/11 8:10,1.8,3,1.8,3,2.4,3
2017/9/11 8:11,1.8,3,1.8,3,2.5,3
2017/9/11 8:12,1.9,3,1.9,3,3.9,2
2017/9/11 8:13,1.9,3,1.9,3,3.6,2
2017/9/11 8:14,2,3,2,3,3.5,3
2017/9/11 8:15,2,3,2,3,3.7,4
2017/9/11 8:16,2,3,2,4,3.9,4
2017/9/11 8:17,2.1,3,2.1,4,2.6,4
2017/9/11 8:18,2.1,3,2.2,3,2.5,5
2017/9/11 8:19,2.1,3,2.1,3,2,4
2017/9/11 8:20,2.1,3,2.1,3,3.2,3
2017/9/11 8:21,2.1,3,2.1,3,2.2,3
2017/9/11 8:22,2,3,2.1,3,2.1,4
2017/9/11 8:23,1.9,4,2,3,1.5,4
2017/9/11 8:24,1.8,3,1.9,3,2.6,2
2017/9/11 8:25,1.6,3,1.8,3,1.8,4
2017/9/11 8:26,1.5,3,1.6,3,2.1,2
2017/9/11 8:27,1.5,3,1.5,3,1.8,3
2017/9/11 8:28,1.4,3,1.5,3,1.4,5
2017/9/11 8:29,1.4,3,1.4,3,1.9,5
2017/9/11 8:30,1.3,4,1.4,3,1.1,3
2017/9/11 8:31,1.2,4,1.3,3,1.4,3
2017/9/11 8:32,1.2,4,1.2,3,1.8,3
2017/9/11 8:33,1.3,4,1.3,3,2.4,3
2017/9/11 8:34,1.2,4,1.3,3,1.6,4
2017/9/11 8:35,1.2,4,1.2,3,1.9,4
2017/9/11 8:36,1.2,4,1.2,3,2.1,2
2017/9/11 8:37,1.3,4,1.3,3,2.7,5
2017/9/11 8:38,1.3,4,1.3,3,2,4
2017/9/11 8:39,1.3,3,1.3,3,2.7,3
2017/9/11 8:40,1.4,3,1.4,3,3.1,2
2017/9/11 8:41,1.4,3,1.5,3,2,3
2017/9/11 8:42,1.4,3,1.4,3,1.5,2
2017/9/11 8:43,1.3,4,1.3,3,1.8,5
2017/9/11 8:44,1.2,4,1.3,3,1.1,3
2017/9/11 8:45,1.2,4,1.2,3,1.1,3
2017/9/11 8:46,1.1,4,1.2,3,2.6,3
2017/9/11 8:47,1.1,4,1.1,3,2.5,5
2017/9/11 8:48,1.2,4,1.2,3,2.2,3
2017/9/11 8:49,1.2,4,1.2,3,2.6,6
2017/9/11 8:50,1.2,4,1.2,3,3.1,5
2017/9/11 8:51,1.3,4,1.3,3,2.9,5
2017/9/11 8:52,1.4,4,1.4,4,2,4
2017/9/11 8:53,1.4,4,1.4,4,2,3
2017/9/11 8:54,1.5,4,1.5,4,2.4,5
2017/9/11 8:55,1.6,4,1.6,4,2.6,2
2017/9/11 8:56,1.6,4,1.6,4,2,4
2017/9/11 8:57,1.6,4,1.6,4,2.7,5
2017/9/11 8:58,1.6,4,1.6,4,2.7,3
2017/9/11 8:59,1.6,4,1.6,4,2.1,2
2017/9/11 9:00,1.5,4,1.6,4,2,3
2017/9/11 9:01,1.5,3,1.5,4,2.7,3
2017/9/11 9:02,1.6,3,1.6,4,2.7,3
2017/9/11 9:03,1.5,3,1.6,4,2.2,2
2017/9/11 9:04,1.5,3,1.5,4,2.2,3
2017/9/11 9:05,1.6,3,1.6,4,2.5,3
2017/9/11 9:06,1.7,3,1.7,3,3.7,4
2017/9/11 9:07,1.7,3,1.7,3,2.7,3
2017/9/11 9:08,1.8,3,1.8,3,2.7,3
2017/9/11 9:09,1.9,3,1.9,3,2.9,3
2017/9/11 9:10,1.9,3,1.9,3,3,3
2017/9/11 9:11,2,3,2,3,3.5,2
2017/9/11 9:12,2,3,2,3,2.7,4
2017/9/11 9:13,2,3,2,3,4.1,4
2017/9/11 9:14,2.1,3,2.1,3,4.3,4
2017/9/11 9:15,2.2,3,2.2,3,3.7,4
2017/9/11 9:16,2.2,3,2.2,3,4.1,4
2017/9/11 9:17,2.3,3,2.3,3,3.8,4
2017/9/11 9:18,2.3,3,2.3,3,3.9,4
2017/9/11 9:19,2.4,3,2.4,3,4.8,4
2017/9/11 9:20,2.5,3,2.5,3,3.9,3
2017/9/11 9:21,2.6,3,2.6,3,4.2,3
2017/9/11 9:22,2.6,3,2.6,3,3.1,3
2017/9/11 9:23,2.6,3,2.6,3,2.6,4
2017/9/11 9:24,2.6,3,2.6,3,2.4,4
2017/9/11 9:25,2.5,4,2.6,3,2.6,3
2017/9/11 9:26,2.4,4,2.5,3,2.6,4
2017/9/11 9:27,2.4,4,2.4,3,3.7,3
2017/9/11 9:28,2.3,4,2.4,3,3.8,4
2017/9/11 9:29,2.3,4,2.4,3,3.8,3
2017/9/11 9:30,2.4,4,2.4,3,5,4
2017/9/11 9:31,2.3,4,2.4,3,4.1,4
2017/9/11 9:32,2.4,4,2.4,3,3.9,4
2017/9/11 9:33,2.4,4,2.4,3,3.7,3
2017/9/11 9:34,2.5,4,2.5,3,3.3,4
2017/9/11 9:35,2.5,4,2.6,4,3.3,4
2017/9/11 9:36,2.6,4,2.6,4,3.7,5
2017/9/11 9:37,2.6,4,2.6,4,4.5,6
2017/9/11 9:38,2.6,4,2.6,4,3.7,3
2017/9/11 9:39,2.6,4,2.6,4,3.2,4
2017/9/11 9:40,2.4,4,2.6,4,4.3,4
2017/9/11 9:41,2.3,4,2.4,4,2.6,4
2017/9/11 9:42,2.2,4,2.3,4,3.5,4
2017/9/11 9:43,2.3,4,2.3,4,3.3,4
2017/9/11 9:44,2.3,4,2.3,4,4.3,4
2017/9/11 9:45,2.4,4,2.4,4,3.9,4
2017/9/11 9:46,2.5,4,2.5,4,5.4,5
2017/9/11 9:47,2.4,4,2.5,4,4.3,5
2017/9/11 9:48,2.5,4,2.5,4,4.3,5
2017/9/11 9:49,2.4,4,2.5,4,3,5
2017/9/11 9:50,2.4,4,2.4,4,3.1,4
2017/9/11 9:51,2.5,4,2.5,4,3.2,5
2017/9/11 9:52,2.4,4,2.5,4,3.2,5
2017/9/11 9:53,2.4,4,2.4,4,3.6,5
2017/9/11 9:54,2.3,4,2.4,4,3.5,5
2017/9/11 9:55,2.3,4,2.3,4,3.2,4
2017/9/11 9:56,2.2,4,2.2,4,3.8,5
2017/9/11 9:57,2.1,4,2.2,4,2.7,3
2017/9/11 9:58,2.2,4,2.2,4,5.1,5
2017/9/11 9:59,2.2,4,2.2,4,3.8,5
2017/9/11 10:00,2.3,4,2.3,4,5.5,6
2017/9/11 10:01,2.3,5,2.4,4,4.2,6
2017/9/11 10:02,2.4,5,2.4,4,3.7,3
2017/9/11 10:03,2.4,5,2.4,4,3.8,5
2017/9/11 10:04,2.4,5,2.4,4,4.4,5
2017/9/11 10:05,2.5,5,2.5,5,4.7,5
2017/9/11 10:06,2.5,5,2.5,5,4.4,5
2017/9/11 10:07,2.6,5,2.6,5,3.8,4
2017/9/11 10:08,2.4,5,2.6,5,3.1,6
2017/9/11 10:09,2.5,5,2.5,5,3.7,4
2017/9/11 10:10,2.4,5,2.5,5,3.2,4
2017/9/11 10:11,2.5,5,2.5,5,6.1,5
2017/9/11 10:12,2.6,5,2.6,5,5.8,6
2017/9/11 10:13,2.6,5,2.6,5,3.7,4
2017/9/11 10:14,2.6,5,2.6,5,4.9,5
2017/9/11 10:15,2.5,5,2.6,5,3.7,5
2017/9/11 10:16,2.7,5,2.7,5,5.8,5
2017/9/11 10:17,2.9,5,2.9,5,6.4,5
2017/9/11 10:18,3,5,3,5,5.6,5
2017/9/11 10:19,3.2,5,3.2,5,5.8,5
2017/9/11 10:20,3.2,5,3.2,5,4.2,5
2017/9/11 10:21,3.1,5,3.2,5,3.5,5
2017/9/11 10:22,3,5,3.1,5,2.6,5
2017/9/11 10:23,3,5,3,5,4.4,5
2017/9/11 10:24,3.1,5,3.1,5,4.4,5
2017/9/11 10:25,3.1,5,3.1,5,4.1,7
2017/9/11 10:26,3,5,3.1,5,3.7,6
2017/9/11 10:27,2.7,5,2.9,5,3,7
2017/9/11 10:28,2.6,6,2.7,5,2.5,6
2017/9/11 10:29,2.4,6,2.6,5,3.6,6
2017/9/11 10:30,2.4,6,2.4,5,6.1,7
2017/9/11 10:31,2.7,6,2.7,5,6.7,6
2017/9/11 10:32,2.8,6,2.8,5,4.3,6
2017/9/11 10:33,2.9,6,2.9,5,5.6,6
2017/9/11 10:34,2.9,6,2.9,5,5.5,6
2017/9/11 10:35,2.9,6,2.9,5,5.6,6
2017/9/11 10:36,2.8,6,2.9,5,4.4,6
2017/9/11 10:37,2.8,6,2.8,6,2.7,8
2017/9/11 10:38,2.8,6,2.8,6,3.8,6
2017/9/11 10:39,2.8,6,2.9,6,4.3,8
2017/9/11 10:40,2.7,6,2.8,6,5.1,4
2017/9/11 10:41,2.6,6,2.6,6,4.9,6
2017/9/11 10:42,2.5,6,2.6,6,3.5,9
2017/9/11 10:43,2.4,7,2.5,6,4.5,6
2017/9/11 10:44,2.4,7,2.5,6,4.7,7
2017/9/11 10:45,2.5,6,2.5,6,5.2,5
2017/9/11 10:46,2.5,6,2.5,6,3.5,4
2017/9/11 10:47,2.6,6,2.6,6,4.3,6
2017/9/11 10:48,2.7,6,2.7,6,4.9,6
2017/9/11 10:49,2.9,6,2.9,6,6.7,7
2017/9/11 10:50,3.1,6,3.1,6,6.8,7
2017/9/11 10:51,3,6,3.1,6,5.1,7
2017/9/11 10:52,3.1,6,3.1,6,5.8,7
2017/9/11 10:53,3,6,3.1,6,5.8,7
2017/9/11 10:54,2.9,6,3,6,3.5,8
2017/9/11 10:55,2.8,7,2.9,6,3.8,8
2017/9/11 10:56,2.8,7,2.8,6,3.7,6
2017/9/11 10:57,2.7,7,2.8,6,4.8,9
2017/9/11 10:58,2.8,7,2.8,6,5.7,7
2017/9/11 10:59,2.6,7,2.8,6,3.9,7
2017/9/11 11:00,2.4,7,2.6,6,2.9,7
2017/9/11 11:01,2.4,7,2.4,6,4.2,6
2017/9/11 11:02,2.5,7,2.5,6,6.4,5
2017/9/11 11:03,2.6,7,2.6,6,6.5,6
2017/9/11 11:04,2.9,7,2.9,6,7.4,9
2017/9/11 11:05,2.9,7,3,7,6.2,7
2017/9/11 11:06,3,7,3,7,5.6,8
2017/9/11 11:07,3.1,7,3.1,7,4.7,8
2017/9/11 11:08,2.9,7,3.1,7,3.2,8
2017/9/11 11:09,2.8,7,2.9,7,3.6,6
2017/9/11 11:10,3.1,7,3.1,7,7.9,6
2017/9/11 11:11,3.2,7,3.2,7,5.8,5
2017/9/11 11:12,3.1,7,3.2,7,5.4,6
2017/9/11 11:13,3.2,7,3.2,7,5.8,6
2017/9/11 11:14,3.1,7,3.3,7,6.1,6
2017/9/11 11:15,3.1,7,3.1,7,4.7,7
2017/9/11 11:16,3.1,7,3.1,7,4.1,8
2017/9/11 11:17,3.2,7,3.2,7,6.7,6
2017/9/11 11:18,3.5,7,3.5,7,6.3,7
2017/9/11 11:19,3.8,7,3.8,7,5.6,6
2017/9/11 11:20,3.5,7,3.8,7,4.4,6
2017/9/11 11:21,3.3,7,3.5,7,4.2,7
2017/9/11 11:22,3.1,7,3.3,7,3.6,8
2017/9/11 11:23,2.9,7,3.1,7,3.7,8
2017/9/11 11:24,3,7,3,7,7.7,9
2017/9/11 11:25,3.2,7,3.2,7,5.8,8
2017/9/11 11:26,3.2,7,3.2,7,4.3,8
2017/9/11 11:27,3.2,7,3.2,7,6.5,7
2017/9/11 11:28,3.1,7,3.2,7,6,5
2017/9/11 11:29,3.1,7,3.1,7,6.8,6
2017/9/11 11:30,3.4,7,3.4,7,7.9,6
2017/9/11 11:31,3.7,7,3.7,7,7.2,6
2017/9/11 11:32,3.7,7,3.7,7,5.5,6
2017/9/11 11:33,3.9,7,3.9,7,7.4,6
2017/9/11 11:34,3.8,6,3.9,7,6.3,5
2017/9/11 11:35,3.6,6,3.8,7,4.1,5
2017/9/11 11:36,3.6,6,3.6,7,4.8,8
2017/9/11 11:37,3.5,6,3.6,7,5.8,6
2017/9/11 11:38,3.6,6,3.6,7,7.9,6
2017/9/11 11:39,3.7,6,3.7,7,8.9,5
2017/9/11 11:40,3.5,7,3.7,7,7.4,7
2017/9/11 11:41,3.5,7,3.5,7,5.8,8
2017/9/11 11:42,3.4,7,3.5,7,5.1,8
2017/9/11 11:43,3.2,7,3.4,7,4.1,8
2017/9/11 11:44,3,7,3.2,6,3.6,8
2017/9/11 11:45,3.1,7,3.1,6,4.8,8
2017/9/11 11:46,3.1,7,3.1,6,5.5,5
2017/9/11 11:47,3.1,7,3.2,6,5.1,6
2017/9/11 11:48,2.8,7,3.1,6,2.5,5